Location: Asheville, NC
(35.6000°N, 82.5500°W)
Time: 20:24:51
(UTC-04:00)

Vanguard 3 - Pass Details

Date: 17 March 2018
Orbit: 508 x 3264 km, 33.3° (Epoch: 24 June)

Event Time Altitude Azimuth Distance (km) Brightness Sun altitude
Rises 06:55:49 0° 219° (SW) 6,468 11.3 -9.4°
Reaches altitude 10° 07:00:01 10° 213° (SSW) 5,717 11.1 -8.6°
Maximum altitude 07:17:28 48° 147° (SSE) 3,915 10.9 -5.0°
Drops below altitude 10° 07:34:39 10° 81° (E) 5,671 13.4 -1.5°
Sets 07:38:44 0° 76° (ENE) 6,419 13.7 -0.7°
